KA1AL Weather Reports


time (UTC)temp
C
wind
direction
speed
KPH
gust
KPH
rain 1hr
cm
rain 24hr
cm
rain mn
cm
humidity
%
barometer
mb
20260508060332 3 166 0.0 0.0 0.00 0.00 0.00 81 1004.8
20260508055832 3 250 4.8 4.8 0.00 0.00 0.00 80 1004.7
20260508055330 3 312 3.2 3.2 0.00 0.00 0.00 80 1004.6
20260508054826 3 254 3.2 3.2 0.00 0.00 0.00 79 1004.7
20260508054324 3 299 3.2 4.8 0.00 0.00 0.00 79 1004.9
20260508053820 3 163 0.0 1.6 0.00 0.00 0.00 78 1004.9
20260508053318 3 201 1.6 1.6 0.00 0.00 0.00 78 1005.0
20260508052815 3 245 4.8 4.8 0.00 0.00 0.00 78 1004.9
20260508052312 3 231 3.2 8.0 0.00 0.00 0.00 78 1005.0
20260508051808 3 320 3.2 4.8 0.00 0.00 0.00 78 1005.2
20260508051303 4 295 4.8 4.8 0.00 0.00 0.00 77 1005.0
20260508050800 4 288 4.8 4.8 0.00 0.00 0.00 76 1005.1
20260508050258 4 267 9.7 12.9 0.00 0.00 0.00 76 1004.9
20260508045753 4 264 9.7 12.9 0.00 0.00 0.00 76 1005.0
20260508045251 4 244 4.8 8.0 0.00 0.00 0.00 76 1005.2
20260508044749 4 245 4.8 8.0 0.00 0.00 0.00 75 1004.9
20260508044245 4 252 6.4 8.0 0.00 0.00 0.00 75 1005.1
20260508043741 4 220 8.0 9.7 0.00 0.00 0.00 74 1005.3
20260508043239 4 226 6.4 9.7 0.00 0.00 0.00 74 1005.2
20260508042735 4 262 8.0 11.3 0.00 0.00 0.00 75 1005.2
20260508042233 4 242 6.4 8.0 0.00 0.00 0.00 73 1005.2
20260508041729 4 209 8.0 8.0 0.00 0.00 0.00 73 1005.1
20260508041226 3 201 4.8 4.8 0.00 0.00 0.00 73 1005.4
20260508040722 3 223 6.4 8.0 0.00 0.00 0.00 73 1005.3
20260508040220 3 217 3.2 3.2 0.00 0.00 0.00 74 1005.3
20260508035717 3 268 8.0 9.7 0.00 0.25 0.25 74 1005.4
20260508035214 3 255 4.8 8.0 0.00 0.25 0.25 74 1005.5
20260508034710 3 269 4.8 8.0 0.00 0.25 0.25 75 1005.5
20260508034208 4 252 4.8 4.8 0.00 0.25 0.25 73 1005.6
20260508033705 4 204 3.2 3.2 0.00 0.25 0.25 72 1005.5
20260508033204 4 228 4.8 8.0 0.00 0.25 0.25 72 1005.3
20260508032700 4 217 4.8 4.8 0.00 0.25 0.25 72 1005.4
20260508032157 4 209 4.8 4.8 0.00 0.25 0.25 73 1005.3
20260508031654 3 239 4.8 4.8 0.00 0.25 0.25 74 1005.3
20260508031150 3 240 6.4 8.0 0.00 0.25 0.25 74 1005.3
20260508030647 3 223 4.8 8.0 0.00 0.25 0.25 75 1005.2
20260508030145 3 226 4.8 4.8 0.00 0.25 0.25 76 1005.3
20260508025640 3 267 4.8 4.8 0.00 0.25 0.25 77 1005.3
20260508025138 3 212 1.6 1.6 0.00 0.25 0.25 76 1005.5
20260508024633 3 161 0.0 1.6 0.00 0.25 0.25 76 1005.5
20260508024131 3 139 1.6 1.6 0.00 0.25 0.25 76 1005.4
20260508023627 3 89 1.6 1.6 0.00 0.25 0.25 77 1005.3
20260508023125 3 105 3.2 3.2 0.00 0.25 0.25 76 1005.2
20260508022620 5 162 0.0 0.0 0.00 0.25 0.25 70 1005.2
20260508022118 5 190 0.0 0.0 0.00 0.25 0.25 70 1005.2
20260508021613 5 170 1.6 1.6 0.00 0.25 0.25 70 1005.0
20260508021110 5 189 1.6 1.6 0.00 0.25 0.25 68 1005.1
20260508020608 5 175 0.0 0.0 0.00 0.25 0.25 68 1005.4
20260508020105 5 231 1.6 3.2 0.00 0.25 0.25 68 1005.5
20260508015602 5 254 3.2 3.2 0.00 0.25 0.25 68 1005.5
20260508015059 5 260 12.9 12.9 0.00 0.25 0.25 67 1005.5
20260508014555 5 226 6.4 8.0 0.00 0.25 0.25 69 1005.3
20260508014052 5 229 6.4 11.3 0.00 0.25 0.25 69 1005.4
20260508013548 5 241 4.8 8.0 0.00 0.25 0.25 69 1005.4
20260508013045 5 246 4.8 4.8 0.00 0.25 0.25 68 1005.6
20260508012542 6 193 3.2 3.2 0.00 0.25 0.25 67 1005.6
20260508012040 6 273 4.8 8.0 0.00 0.25 0.25 66 1005.7
20260508011538 6 295 6.4 8.0 0.00 0.25 0.25 65 1005.7
20260508011035 6 59 1.6 3.2 0.00 0.25 0.25 65 1005.8
20260508010531 6 55 1.6 1.6 0.00 0.25 0.25 66 1005.7
20260508010029 6 275 4.8 4.8 0.00 0.25 0.25 64 1005.6
20260508005525 6 209 4.8 4.8 0.00 0.25 0.25 64 1005.6
20260508005022 6 217 9.7 12.9 0.00 0.25 0.25 63 1005.1
20260508004518 6 244 1.6 3.2 0.00 0.25 0.25 64 1005.4
20260508004015 6 213 8.0 11.3 0.00 0.25 0.25 65 1005.4
20260508003512 6 228 3.2 3.2 0.00 0.25 0.25 64 1005.4
20260508003009 6 195 1.6 3.2 0.00 0.25 0.25 64 1005.4
20260508002505 6 260 6.4 8.0 0.00 0.25 0.25 65 1005.2
20260508002002 6 225 6.4 8.0 0.00 0.25 0.25 64 1005.3
20260508001458 6 188 3.2 3.2 0.00 0.25 0.25 65 1005.2
20260508000955 6 197 3.2 3.2 0.00 0.25 0.25 67 1005.2
20260508000450 6 233 4.8 4.8 0.00 0.25 0.25 65 1005.4
20260507235948 6 211 4.8 4.8 0.00 0.25 0.25 64 1004.9
20260507235444 7 240 4.8 8.0 0.00 0.25 0.25 62 1005.2
20260507234942 7 258 6.4 8.0 0.00 0.25 0.25 62 1005.1
20260507234438 7 199 4.8 8.0 0.00 0.25 0.25 61 1004.8
20260507233935 7 306 11.3 12.9 0.00 0.25 0.25 61 1004.8
20260507233432 7 254 6.4 9.7 0.00 0.25 0.25 62 1004.7
20260507232930 7 265 9.7 12.9 0.00 0.25 0.25 61 1004.5
20260507232426 7 278 9.7 14.5 0.00 0.25 0.25 60 1004.9
20260507231924 7 261 8.0 14.5 0.00 0.25 0.25 61 1004.8
20260507231420 7 265 14.5 20.9 0.00 0.25 0.25 60 1004.7
20260507230917 7 265 11.3 12.9 0.00 0.25 0.25 60 1004.6
20260507230415 7 279 14.5 20.9 0.00 0.25 0.25 60 1004.7
20260507225914 8 101 11.3 14.5 0.00 0.25 0.25 59 1004.6
20260507225411 8 245 12.9 14.5 0.00 0.25 0.25 58 1004.5
20260507224907 8 264 14.5 22.5 0.00 0.25 0.25 58 1004.5
20260507224403 8 274 8.0 9.7 0.00 0.25 0.25 56 1004.4
20260507223900 8 201 3.2 11.3 0.00 0.25 0.25 58 1004.2
20260507223356 8 301 8.0 11.3 0.00 0.25 0.25 57 1004.5
20260507222853 9 273 14.5 22.5 0.00 0.25 0.25 57 1004.2
20260507222349 10 237 8.0 11.3 0.00 0.25 0.25 57 1004.2
20260507221846 10 267 22.5 32.2 0.00 0.25 0.25 55 1003.7
20260507221343 10 272 11.3 17.7 0.00 0.25 0.25 56 1003.9
20260507220839 10 342 11.3 12.9 0.00 0.25 0.25 55 1003.7
20260507220337 10 217 11.3 16.1 0.00 0.25 0.25 55 1003.9
20260507215833 10 253 24.1 38.6 0.00 0.25 0.25 55 1003.8
20260507215331 10 267 16.1 24.1 0.00 0.25 0.25 56 1003.7
20260507214827 10 324 11.3 16.1 0.00 0.25 0.25 55 1003.8
20260507214325 10 300 8.0 12.9 0.00 0.25 0.25 55 1003.8
20260507213820 11 310 11.3 20.9 0.00 0.25 0.25 56 1003.6
20260507213318 11 269 9.7 14.5 0.00 0.25 0.25 57 1003.6
20260507212814 11 116 4.8 8.0 0.00 0.25 0.25 57 1003.5
20260507212310 10 244 16.1 20.9 0.00 0.25 0.25 59 1003.4
20260507211806 11 26 4.8 8.0 0.00 0.25 0.25 59 1003.3
20260507211303 11 267 12.9 16.1 0.00 0.25 0.25 58 1003.2
20260507210800 11 263 4.8 11.3 0.00 0.25 0.25 59 1003.2
20260507210256 10 235 12.9 14.5 0.00 0.25 0.25 61 1003.4
20260507205753 11 266 9.7 14.5 0.00 0.25 0.25 59 1003.1
20260507205250 11 214 8.0 12.9 0.00 0.25 0.25 61 1003.3
20260507204746 11 313 6.4 11.3 0.00 0.25 0.25 59 1002.6
20260507204244 11 251 12.9 14.5 0.00 0.25 0.25 60 1002.9
20260507203742 12 52 6.4 9.7 0.00 0.25 0.25 60 1002.7
20260507203239 12 276 9.7 11.3 0.00 0.25 0.25 60 1002.7
20260507202735 12 238 4.8 8.0 0.00 0.25 0.25 59 1002.8
20260507202231 11 263 17.7 20.9 0.00 0.25 0.25 60 1002.7
20260507201726 12 182 6.4 9.7 0.00 0.25 0.25 62 1002.5
20260507201223 12 248 8.0 11.3 0.00 0.25 0.25 62 1002.7
20260507200720 11 335 8.0 11.3 0.00 0.25 0.25 58 1002.3
20260507200216 12 323 8.0 9.7 0.00 0.25 0.25 59 1002.4
20260507195712 12 279 4.8 4.8 0.00 0.25 0.25 60 1002.4
20260507195209 13 186 11.3 14.5 0.00 0.25 0.25 58 1002.4
20260507194706 12 255 4.8 8.0 0.00 0.25 0.25 58 1002.1
20260507194202 12 278 8.0 11.3 0.00 0.25 0.25 58 1002.3
20260507193659 12 252 8.0 9.7 0.00 0.25 0.25 59 1002.3
20260507193156 12 285 6.4 9.7 0.00 0.25 0.25 60 1002.4
20260507192652 13 278 4.8 4.8 0.00 0.25 0.25 59 1002.6
20260507192149 13 271 9.7 12.9 0.00 0.25 0.25 59 1002.3
20260507191645 13 272 14.5 16.1 0.00 0.25 0.25 58 1002.5
20260507191142 12 280 19.3 25.7 0.00 0.25 0.25 61 1002.4
20260507190639 12 250 14.5 17.7 0.00 0.25 0.25 62 1002.2
20260507190138 13 250 11.3 16.1 0.00 0.25 0.25 64 1002.5
20260507185636 12 302 4.8 4.8 0.00 0.25 0.25 70 1002.4
20260507185132 11 301 6.4 8.0 0.00 0.25 0.25 70 1002.7
20260507184630 12 209 6.4 9.7 0.00 0.25 0.25 69 1002.8
20260507184128 11 267 11.3 14.5 0.00 0.25 0.25 72 1002.6
20260507183624 11 280 14.5 16.1 0.00 0.25 0.25 70 1002.7
20260507183121 12 294 8.0 11.3 0.00 0.25 0.25 68 1002.5
20260507182617 12 22 8.0 11.3 0.00 0.25 0.25 67 1002.8
20260507182113 12 51 4.8 11.3 0.00 0.25 0.25 68 1002.9
20260507181610 12 262 6.4 8.0 0.00 0.25 0.25 72 1002.9
20260507181106 11 259 9.7 11.3 0.00 0.25 0.25 71 1002.9
20260507180603 11 334 6.4 12.9 0.00 0.25 0.25 70 1003.0
20260507180100 11 233 3.2 3.2 0.00 0.25 0.25 71 1002.8
20260507175556 11 246 16.1 20.9 0.00 0.25 0.25 68 1002.7
20260507175054 12 299 4.8 8.0 0.00 0.25 0.25 67 1002.7
20260507174550 12 239 4.8 4.8 0.00 0.25 0.25 65 1002.7
20260507174048 12 267 8.0 9.7 0.00 0.25 0.25 66 1002.4
20260507173545 12 241 6.4 9.7 0.00 0.25 0.25 67 1002.9
20260507173042 12 248 8.0 11.3 0.00 0.25 0.25 69 1002.7
20260507172538 12 265 6.4 8.0 0.00 0.25 0.25 66 1002.6
20260507172035 12 220 3.2 3.2 0.00 0.25 0.25 67 1002.9
20260507171530 11 185 8.0 9.7 0.00 0.25 0.25 67 1002.8
20260507171028 12 183 16.1 27.4 0.00 0.25 0.25 65 1003.2
20260507170524 11 235 17.7 20.9 0.00 0.25 0.25 69 1003.0
20260507170021 11 218 11.3 12.9 0.00 0.25 0.25 69 1003.2
20260507165517 11 253 9.7 12.9 0.00 0.25 0.25 68 1003.0
20260507165014 11 272 12.9 12.9 0.00 0.25 0.25 67 1003.2
20260507164510 11 245 6.4 9.7 0.00 0.25 0.25 68 1003.3
20260507164007 12 277 6.4 8.0 0.00 0.25 0.25 66 1003.3
20260507163504 12 244 8.0 8.0 0.00 0.25 0.25 64 1003.1
20260507163002 12 266 8.0 9.7 0.00 0.25 0.25 63 1003.3
20260507162457 12 269 8.0 9.7 0.00 0.25 0.25 66 1003.4
20260507161954 12 252 8.0 11.3 0.00 0.25 0.25 64 1003.1
20260507161450 12 236 4.8 4.8 0.00 0.25 0.25 65 1003.2
20260507160947 12 239 8.0 9.7 0.00 0.25 0.25 64 1003.6
20260507160443 12 190 1.6 3.2 0.00 0.25 0.25 65 1003.5
20260507155939 12 214 8.0 9.7 0.00 0.25 0.25 67 1003.6
20260507155435 12 259 8.0 8.0 0.00 0.25 0.25 67 1003.5
20260507154932 12 181 3.2 4.8 0.00 0.25 0.25 67 1003.4
20260507154429 11 199 3.2 4.8 0.00 0.25 0.25 72 1003.5
20260507153926 11 46 3.2 3.2 0.00 0.25 0.25 72 1003.7
20260507153423 11 41 3.2 3.2 0.00 0.25 0.25 69 1003.9
20260507152919 12 343 3.2 3.2 0.00 0.25 0.25 68 1003.5
20260507152415 12 342 6.4 8.0 0.00 0.25 0.25 71 1003.6
20260507151911 11 24 6.4 9.7 0.00 0.25 0.25 72 1003.6
20260507151408 11 174 0.0 0.0 0.00 0.25 0.25 70 1003.8
20260507150905 11 231 1.6 3.2 0.00 0.25 0.25 72 1003.7
20260507150402 12 49 1.6 3.2 0.00 0.25 0.25 72 1003.9
20260507145858 11 229 6.4 9.7 0.00 0.25 0.25 71 1003.9
20260507145354 12 299 4.8 4.8 0.00 0.25 0.25 76 1003.9
20260507144851 12 173 1.6 1.6 0.00 0.25 0.25 75 1003.8
20260507144349 11 257 9.7 11.3 0.00 0.25 0.25 75 1004.0
20260507143845 12 148 6.4 8.0 0.00 0.25 0.25 77 1003.9
20260507143343 11 274 3.2 3.2 0.00 0.25 0.25 77 1004.0
20260507142839 11 290 4.8 9.7 0.00 0.25 0.25 76 1004.2
20260507142335 11 262 17.7 20.9 0.00 0.25 0.25 77 1004.4
20260507141832 11 297 6.4 8.0 0.00 0.25 0.25 76 1004.4
20260507141328 11 261 8.0 9.7 0.00 0.25 0.25 79 1004.0
20260507140825 11 317 3.2 4.8 0.00 0.25 0.25 77 1004.5
20260507140322 11 288 1.6 1.6 0.00 0.25 0.25 78 1004.2
20260507135820 11 39 3.2 3.2 0.00 0.25 0.25 80 1004.5
20260507135316 11 253 4.8 8.0 0.00 0.25 0.25 83 1004.2
20260507134814 10 39 1.6 3.2 0.00 0.25 0.25 84 1004.2
20260507134309 10 222 6.4 9.7 0.00 0.25 0.25 85 1004.5
20260507133805 10 272 8.0 11.3 0.00 0.25 0.25 84 1004.2
20260507133301 10 261 12.9 14.5 0.00 0.25 0.25 83 1004.2
20260507132800 10 180 1.6 3.2 0.00 0.25 0.25 87 1004.4
20260507132256 10 220 1.6 3.2 0.00 0.25 0.25 86 1004.2
20260507131753 10 132 1.6 1.6 0.00 0.25 0.25 88 1004.6
20260507131250 10 9 4.8 4.8 0.00 0.25 0.25 88 1004.6
20260507130747 9 262 8.0 11.3 0.00 0.25 0.25 88 1004.5
20260507130244 9 251 6.4 9.7 0.00 0.25 0.25 88 1004.7
20260507125743 8 13 4.8 8.0 0.00 0.25 0.25 88 1004.7
20260507125240 8 36 4.8 8.0 0.00 0.25 0.25 89 1004.7
20260507124737 8 42 4.8 4.8 0.00 0.25 0.25 89 1004.7
20260507124233 8 240 4.8 8.0 0.00 0.25 0.25 91 1004.7
20260507123732 8 32 3.2 3.2 0.00 0.25 0.25 90 1004.4
20260507123229 7 346 4.8 4.8 0.00 0.25 0.25 90 1004.6
20260507122724 7 253 6.4 9.7 0.00 0.25 0.25 91 1004.8
20260507122220 7 294 11.3 12.9 0.00 0.25 0.25 91 1004.7
20260507121716 7 324 6.4 11.3 0.00 0.25 0.25 92 1005.0
20260507121213 7 14 3.2 4.8 0.00 0.25 0.25 92 1004.9
20260507120709 7 267 4.8 4.8 0.00 0.25 0.25 93 1005.1
20260507120206 6 308 11.3 14.5 0.00 0.25 0.25 92 1004.9
20260507115702 6 295 4.8 8.0 0.00 0.25 0.25 93 1004.9
20260507115158 6 169 1.6 1.6 0.00 0.25 0.25 94 1005.0
20260507114653 6 344 6.4 8.0 0.00 0.25 0.25 93 1004.7
20260507114151 6 165 0.0 0.0 0.00 0.25 0.25 94 1004.7
20260507113648 6 253 6.4 11.3 0.00 0.25 0.25 94 1004.6
20260507113145 6 285 8.0 9.7 0.00 0.25 0.25 94 1004.6
20260507112643 6 303 4.8 4.8 0.00 0.25 0.25 95 1004.6
20260507112139 6 244 3.2 3.2 0.00 0.25 0.25 96 1004.8
20260507111637 6 288 4.8 8.0 0.00 0.25 0.25 95 1004.6
20260507111133 5 195 1.6 1.6 0.00 0.25 0.25 96 1004.9
20260507110629 5 295 4.8 8.0 0.00 0.25 0.25 96 1004.7
20260507110126 5 264 9.7 16.1 0.00 0.25 0.25 97 1004.9
20260507105623 5 217 3.2 4.8 0.00 0.25 0.25 97 1005.1
20260507105119 5 252 6.4 8.0 0.00 0.25 0.25 97 1005.2
20260507104617 5 281 9.7 11.3 0.00 0.25 0.25 98 1004.8
20260507104113 5 274 3.2 3.2 0.00 0.25 0.25 98 1004.8
20260507103609 5 252 6.4 8.0 0.00 0.25 0.25 98 1004.6
20260507103106 5 144 0.0 1.6 0.00 0.25 0.25 99 1005.0
20260507102602 5 201 3.2 4.8 0.00 0.25 0.25 99 1004.6
20260507102059 5 227 4.8 4.8 0.00 0.25 0.25 99 1004.5
20260507101554 5 182 0.0 1.6 0.00 0.25 0.25 99 1004.4
20260507101051 5 152 0.0 1.6 0.00 0.25 0.25 99 1004.7
20260507100548 5 196 1.6 1.6 0.00 0.25 0.25 99 1004.5
20260507100046 5 203 1.6 3.2 0.00 0.25 0.25 99 1004.4
20260507095544 5 223 3.2 3.2 0.00 0.25 0.25 99 1004.5
20260507095040 5 158 0.0 0.0 0.00 0.25 0.25 99 1004.6
20260507094536 5 208 1.6 1.6 0.00 0.25 0.25 99 1004.2
20260507094033 5 78 1.6 1.6 0.00 0.25 0.25 99 1004.5
20260507093531 5 266 4.8 4.8 0.00 0.25 0.25 99 1004.4
20260507093029 5 219 3.2 3.2 0.00 0.25 0.25 99 1004.6
20260507092525 5 217 4.8 8.0 0.00 0.25 0.25 99 1004.7
20260507092022 5 191 3.2 3.2 0.00 0.25 0.25 99 1004.5
20260507091519 5 225 4.8 4.8 0.00 0.25 0.25 99 1004.1
20260507091015 5 155 0.0 0.0 0.00 0.25 0.25 99 1003.5
20260507090511 5 6 1.6 3.2 0.00 0.25 0.25 99 1003.8
20260507090008 5 176 0.0 0.0 0.00 0.25 0.25 99 1003.7
20260507085505 5 180 0.0 0.0 0.00 0.25 0.25 99 1003.7
20260507085001 5 197 4.8 4.8 0.00 0.25 0.25 99 1003.8
20260507084458 5 198 0.0 1.6 0.00 0.25 0.25 99 1004.0
20260507083955 5 354 1.6 3.2 0.00 0.25 0.25 99 1004.1
20260507083452 5 201 3.2 3.2 0.00 0.25 0.25 99 1004.4
20260507082948 5 211 4.8 8.0 0.00 0.25 0.25 99 1004.7
20260507082444 5 256 4.8 4.8 0.00 0.25 0.25 99 1004.7
20260507081941 5 241 6.4 8.0 0.00 0.25 0.25 99 1004.7
20260507081437 5 253 1.6 3.2 0.00 0.25 0.25 99 1004.2
20260507080935 5 88 1.6 3.2 0.00 0.25 0.25 99 1004.7
20260507080430 5 180 3.2 3.2 0.00 0.25 0.25 99 1004.0
20260507075926 5 47 4.8 4.8 0.00 0.25 0.25 99 1003.8
20260507075422 5 169 0.0 1.6 0.00 0.25 0.25 99 1004.0
20260507074919 5 149 1.6 1.6 0.00 0.25 0.25 99 1004.4
20260507074416 5 162 1.6 1.6 0.00 0.25 0.25 99 1004.1
20260507073914 5 249 1.6 3.2 0.00 0.25 0.25 99 1004.4
20260507073410 5 57 3.2 3.2 0.00 0.25 0.25 99 1004.2
20260507072907 5 145 0.0 1.6 0.00 0.25 0.25 99 1004.1
20260507072404 5 352 1.6 3.2 0.00 0.25 0.25 99 1003.9
20260507071902 5 29 4.8 4.8 0.00 0.25 0.25 99 1003.7
20260507071359 5 37 1.6 3.2 0.00 0.25 0.25 99 1003.4
20260507070855 5 48 3.2 4.8 0.00 0.25 0.25 99 1003.5
20260507070353 5 217 8.0 12.9 0.00 0.25 0.25 99 1003.3
20260507065849 5 155 3.2 4.8 0.00 0.25 0.25 99 1003.5
20260507065346 5 309 4.8 8.0 0.00 0.25 0.25 99 1003.7
20260507064843 5 139 1.6 1.6 0.00 0.25 0.25 99 1003.5
20260507064341 5 35 6.4 11.3 0.00 0.25 0.25 99 1003.8
20260507063839 5 99 0.0 1.6 0.00 0.25 0.25 99 1003.8
20260507063335 5 28 1.6 3.2 0.00 0.25 0.25 99 1004.0
20260507062832 5 317 9.7 14.5 0.00 0.25 0.25 99 1003.5
20260507062329 5 337 6.4 8.0 0.00 0.25 0.25 99 1003.8
20260507061827 5 350 4.8 4.8 0.00 0.25 0.25 99 1003.5
20260507061325 6 43 4.8 8.0 0.00 0.25 0.25 99 1003.3
20260507060824 6 46 1.6 1.6 0.00 0.25 0.25 99 1003.6